| time (UTC) | temp F | wind direction | speed knots | gust knots | rain 1hr in | rain 24hr in | rain mn in | humidity % | barometer mb |
| 20260906135011 | 74 | 47 | 0.9 | 3.5 | 0.00 | 0.95 | 0.00 | 80 | 1015.1 |
| 20260906134524 | 74 | 328 | 0.0 | 2.6 | 0.00 | 0.95 | 0.00 | 84 | 1015.1 |
| 20260906134018 | 73 | 157 | 0.0 | 1.7 | 0.00 | 0.95 | 0.00 | 84 | 1014.9 |
| 20260906133515 | 73 | 325 | 0.0 | 2.6 | 0.00 | 0.95 | 0.00 | 84 | 1014.9 |
| 20260906133028 | 73 | 311 | 0.0 | 2.6 | 0.00 | 0.95 | 0.00 | 85 | 1015.0 |
| 20260906132518 | 72 | 51 | 0.0 | 2.6 | 0.00 | 0.95 | 0.00 | 86 | 1014.9 |
| 20260906132010 | 72 | 310 | 0.0 | 2.6 | 0.00 | 0.95 | 0.00 | 87 | 1014.9 |
| 20260906131529 | 72 | 155 | 0.0 | 2.6 | 0.00 | 0.95 | 0.00 | 88 | 1014.9 |
| 20260906131017 | 72 | 19 | 0.0 | 2.6 | 0.00 | 0.95 | 0.00 | 87 | 1015.0 |
| 20260906130511 | 72 | 167 | 0.9 | 2.6 | 0.00 | 0.95 | 0.00 | 87 | 1014.8 |
| 20260906130041 | 72 | 324 | 0.9 | 2.6 | 0.00 | 0.95 | 0.00 | 88 | 1014.5 |
| 20260906125522 | 71 | 61 | 0.0 | 2.6 | 0.00 | 0.95 | 0.00 | 90 | 1014.5 |
| 20260906125011 | 71 | 352 | 0.0 | 2.6 | 0.00 | 0.95 | 0.00 | 90 | 1014.7 |
| 20260906124504 | 71 | 306 | 0.0 | 2.6 | 0.00 | 0.95 | 0.00 | 90 | 1014.9 |
| 20260906124006 | 71 | 360 | 0.0 | 0.9 | 0.00 | 0.95 | 0.00 | 90 | 1015.0 |
| 20260906123513 | 71 | 360 | 0.0 | 0.9 | 0.00 | 0.95 | 0.00 | 90 | 1015.0 |
| 20260906123004 | 71 | 360 | 0.0 | 0.9 | 0.00 | 0.95 | 0.00 | 90 | 1015.0 |
| 20260906122508 | 71 | 360 | 0.0 | 0.9 | 0.00 | 0.95 | 0.00 | 91 | 1014.9 |
| 20260906122014 | 70 | 360 | 0.0 | 0.9 | 0.00 | 0.95 | 0.00 | 92 | 1014.8 |
| 20260906121504 | 70 | 360 | 0.0 | 2.6 | 0.00 | 0.95 | 0.00 | 94 | 1014.8 |
| 20260906121009 | 70 | 285 | 0.0 | 2.6 | 0.00 | 0.95 | 0.00 | 94 | 1014.7 |
| 20260906120515 | 70 | 245 | 0.0 | 0.0 | 0.00 | 0.95 | 0.00 | 95 | 1014.6 |
| 20260906120007 | 70 | 242 | 0.0 | 0.0 | 0.00 | 0.95 | 0.00 | 95 | 1014.5 |
| 20260906115511 | 69 | 242 | 0.0 | 0.0 | 0.00 | 0.95 | 0.00 | 95 | 1014.4 |
| 20260906115012 | 69 | 242 | 0.0 | 0.0 | 0.00 | 0.95 | 0.00 | 95 | 1014.3 |
| 20260906114505 | 69 | 242 | 0.0 | 0.0 | 0.00 | 0.95 | 0.00 | 95 | 1014.3 |
| 20260906114013 | 69 | 242 | 0.0 | 0.0 | 0.00 | 0.95 | 0.00 | 95 | 1014.2 |
| 20260906113517 | 69 | 242 | 0.0 | 0.0 | 0.00 | 0.95 | 0.00 | 96 | 1014.1 |
| 20260906113008 | 69 | 242 | 0.0 | 0.0 | 0.00 | 0.95 | 0.00 | 96 | 1014.1 |
| 20260906112511 | 69 | 242 | 0.0 | 0.0 | 0.00 | 0.95 | 0.00 | 96 | 1014.0 |
| 20260906112017 | 70 | 242 | 0.0 | 0.0 | 0.00 | 0.95 | 0.00 | 95 | 1013.9 |
| 20260906111507 | 70 | 176 | 0.0 | 0.0 | 0.00 | 0.95 | 0.00 | 96 | 1013.7 |
| 20260906111011 | 70 | 176 | 0.0 | 0.0 | 0.00 | 0.95 | 0.00 | 96 | 1013.6 |
| 20260906110513 | 71 | 284 | 0.0 | 0.0 | 0.00 | 0.95 | 0.00 | 96 | 1013.5 |
| 20260906110013 | 71 | 284 | 0.0 | 0.0 | 0.00 | 0.95 | 0.00 | 96 | 1013.6 |
| 20260906105513 | 71 | 284 | 0.0 | 0.0 | 0.00 | 0.95 | 0.00 | 96 | 1013.6 |
| 20260906105017 | 71 | 284 | 0.0 | 0.0 | 0.00 | 0.95 | 0.00 | 96 | 1013.5 |
| 20260906104516 | 71 | 284 | 0.0 | 0.0 | 0.00 | 0.95 | 0.00 | 96 | 1013.5 |
| 20260906104012 | 71 | 284 | 0.0 | 0.0 | 0.00 | 0.95 | 0.00 | 96 | 1013.4 |
| 20260906103504 | 71 | 284 | 0.0 | 0.0 | 0.00 | 0.95 | 0.00 | 96 | 1013.4 |
| 20260906103010 | 71 | 284 | 0.0 | 0.0 | 0.00 | 0.95 | 0.00 | 97 | 1013.3 |
| 20260906102513 | 71 | 284 | 0.0 | 0.0 | 0.00 | 0.95 | 0.00 | 96 | 1013.4 |
| 20260906102007 | 71 | 284 | 0.0 | 0.0 | 0.00 | 0.95 | 0.00 | 96 | 1013.3 |
| 20260906101510 | 71 | 284 | 0.0 | 0.0 | 0.00 | 0.95 | 0.00 | 96 | 1013.3 |
| 20260906101011 | 71 | 284 | 0.0 | 0.0 | 0.00 | 0.95 | 0.00 | 96 | 1013.2 |
| 20260906100503 | 71 | 5 | 0.0 | 0.0 | 0.00 | 0.95 | 0.00 | 96 | 1013.1 |
| 20260906100012 | 71 | 5 | 0.0 | 0.0 | 0.00 | 0.95 | 0.00 | 96 | 1013.0 |
| 20260906095512 | 71 | 5 | 0.0 | 0.0 | 0.00 | 0.95 | 0.00 | 96 | 1013.0 |
| 20260906095006 | 71 | 5 | 0.0 | 0.0 | 0.00 | 0.95 | 0.00 | 96 | 1012.9 |
| 20260906094511 | 72 | 5 | 0.0 | 0.0 | 0.00 | 0.95 | 0.00 | 96 | 1012.9 |
| 20260906094003 | 72 | 5 | 0.0 | 0.0 | 0.00 | 0.95 | 0.00 | 96 | 1012.9 |
| 20260906093503 | 72 | 5 | 0.0 | 0.0 | 0.00 | 0.95 | 0.00 | 96 | 1013.0 |
| 20260906093003 | 72 | 5 | 0.0 | 0.0 | 0.00 | 0.95 | 0.00 | 96 | 1012.9 |
| 20260906092503 | 72 | 5 | 0.0 | 0.0 | 0.00 | 0.95 | 0.00 | 96 | 1012.8 |
| 20260906092004 | 72 | 5 | 0.0 | 0.0 | 0.00 | 0.95 | 0.00 | 96 | 1012.6 |
| 20260906091503 | 72 | 5 | 0.0 | 0.0 | 0.00 | 0.95 | 0.00 | 96 | 1012.7 |
| 20260906091003 | 72 | 5 | 0.0 | 0.0 | 0.00 | 0.95 | 0.00 | 96 | 1012.6 |
| 20260906090506 | 72 | 5 | 0.0 | 0.0 | 0.00 | 0.95 | 0.00 | 96 | 1012.6 |
| 20260906090004 | 72 | 5 | 0.0 | 0.0 | 0.00 | 0.95 | 0.00 | 96 | 1012.5 |
| 20260906085504 | 72 | 5 | 0.0 | 0.0 | 0.00 | 0.95 | 0.00 | 96 | 1012.5 |
| 20260906085003 | 72 | 5 | 0.0 | 0.0 | 0.00 | 0.95 | 0.00 | 96 | 1012.5 |
| 20260906084504 | 72 | 5 | 0.0 | 0.0 | 0.00 | 0.95 | 0.00 | 96 | 1012.4 |
| 20260906084005 | 72 | 5 | 0.0 | 0.0 | 0.00 | 0.95 | 0.00 | 96 | 1012.4 |
| 20260906083502 | 72 | 5 | 0.0 | 0.0 | 0.00 | 0.95 | 0.00 | 96 | 1012.4 |
| 20260906083004 | 72 | 5 | 0.0 | 0.0 | 0.00 | 0.95 | 0.00 | 96 | 1012.4 |
| 20260906082503 | 72 | 5 | 0.0 | 0.0 | 0.00 | 0.95 | 0.00 | 96 | 1012.4 |
| 20260906082006 | 72 | 5 | 0.0 | 0.0 | 0.00 | 0.95 | 0.00 | 96 | 1012.4 |
| 20260906081510 | 72 | 5 | 0.0 | 0.0 | 0.00 | 0.95 | 0.00 | 96 | 1012.4 |
| 20260906081003 | 72 | 5 | 0.0 | 0.0 | 0.00 | 0.95 | 0.00 | 96 | 1012.4 |
| 20260906080507 | 72 | 5 | 0.0 | 0.0 | 0.00 | 0.95 | 0.00 | 96 | 1012.4 |
| 20260906080004 | 72 | 5 | 0.0 | 0.0 | 0.00 | 0.95 | 0.00 | 96 | 1012.4 |
| 20260906075503 | 72 | 5 | 0.0 | 0.0 | 0.00 | 0.95 | 0.00 | 96 | 1012.3 |
| 20260906075003 | 72 | 309 | 0.0 | 0.0 | 0.00 | 0.95 | 0.00 | 96 | 1012.3 |
| 20260906074503 | 72 | 309 | 0.0 | 0.0 | 0.00 | 0.95 | 0.00 | 96 | 1012.3 |
| 20260906074003 | 72 | 309 | 0.0 | 0.0 | 0.00 | 0.95 | 0.00 | 96 | 1012.3 |
| 20260906073502 | 72 | 309 | 0.0 | 0.0 | 0.00 | 0.95 | 0.00 | 96 | 1012.3 |
| 20260906073004 | 72 | 309 | 0.0 | 0.0 | 0.00 | 0.95 | 0.00 | 96 | 1012.3 |
| 20260906072504 | 72 | 309 | 0.0 | 0.0 | 0.00 | 0.95 | 0.00 | 96 | 1012.3 |
| 20260906072004 | 72 | 309 | 0.0 | 0.0 | 0.00 | 0.95 | 0.00 | 96 | 1012.3 |
| 20260906071503 | 72 | 309 | 0.0 | 0.0 | 0.00 | 0.95 | 0.00 | 96 | 1012.2 |
| 20260906071003 | 72 | 309 | 0.0 | 0.0 | 0.00 | 0.95 | 0.00 | 96 | 1012.2 |
| 20260906070505 | 72 | 309 | 0.0 | 0.0 | 0.00 | 0.95 | 0.00 | 96 | 1012.2 |
| 20260906070003 | 72 | 309 | 0.0 | 0.0 | 0.00 | 0.95 | 0.00 | 96 | 1012.2 |
| 20260906065503 | 72 | 309 | 0.0 | 0.0 | 0.00 | 0.95 | 0.00 | 96 | 1012.2 |
| 20260906065004 | 72 | 309 | 0.0 | 0.0 | 0.00 | 0.95 | 0.00 | 96 | 1012.2 |
| 20260906064506 | 72 | 309 | 0.0 | 0.0 | 0.00 | 0.95 | 0.00 | 96 | 1012.2 |
| 20260906064002 | 72 | 309 | 0.0 | 0.0 | 0.00 | 0.95 | 0.00 | 96 | 1012.2 |
| 20260906063503 | 72 | 309 | 0.0 | 0.0 | 0.00 | 0.95 | 0.00 | 96 | 1012.3 |
| 20260906063008 | 72 | 309 | 0.0 | 0.0 | 0.00 | 0.95 | 0.00 | 96 | 1012.4 |
| 20260906062508 | 72 | 309 | 0.0 | 0.0 | 0.00 | 0.95 | 0.00 | 96 | 1012.3 |
| 20260906062008 | 72 | 309 | 0.0 | 0.0 | 0.00 | 0.95 | 0.00 | 96 | 1012.3 |
| 20260906061506 | 72 | 309 | 0.0 | 0.0 | 0.00 | 0.95 | 0.00 | 96 | 1012.4 |
| 20260906061004 | 72 | 309 | 0.0 | 0.0 | 0.00 | 0.95 | 0.00 | 96 | 1012.4 |
| 20260906060503 | 72 | 309 | 0.0 | 0.0 | 0.00 | 0.95 | 0.00 | 96 | 1012.4 |
| 20260906060006 | 72 | 309 | 0.0 | 0.0 | 0.00 | 0.95 | 0.00 | 96 | 1012.6 |
| 20260906055503 | 72 | 309 | 0.0 | 0.0 | 0.00 | 0.95 | 0.00 | 96 | 1012.6 |
| 20260906055003 | 72 | 309 | 0.0 | 0.0 | 0.00 | 0.95 | 0.00 | 96 | 1012.6 |
| 20260906054503 | 72 | 309 | 0.0 | 0.0 | 0.00 | 0.95 | 0.00 | 96 | 1012.5 |
| 20260906054004 | 72 | 309 | 0.0 | 0.0 | 0.00 | 0.95 | 0.00 | 96 | 1012.4 |
| 20260906053506 | 72 | 309 | 0.0 | 0.0 | 0.00 | 0.95 | 0.00 | 96 | 1012.5 |
| 20260906053006 | 72 | 309 | 0.0 | 0.0 | 0.00 | 0.95 | 0.00 | 96 | 1012.4 |
| 20260906052507 | 72 | 309 | 0.0 | 0.0 | 0.00 | 0.95 | 0.00 | 96 | 1012.5 |
| 20260906052006 | 72 | 309 | 0.0 | 0.0 | 0.00 | 0.95 | 0.00 | 96 | 1012.4 |
| 20260906051504 | 72 | 309 | 0.0 | 0.0 | 0.00 | 0.95 | 0.00 | 96 | 1012.6 |
| 20260906051004 | 72 | 309 | 0.0 | 0.0 | 0.00 | 0.95 | 0.00 | 96 | 1012.8 |
| 20260906050505 | 72 | 309 | 0.0 | 0.0 | 0.00 | 0.95 | 0.00 | 96 | 1012.7 |
| 20260906050008 | 72 | 309 | 0.0 | 0.0 | 0.00 | 0.95 | 0.00 | 96 | 1012.7 |
| 20260906045509 | 72 | 309 | 0.0 | 0.0 | 0.00 | 0.95 | 0.00 | 96 | 1012.8 |
| 20260906045006 | 72 | 309 | 0.0 | 0.0 | 0.00 | 0.95 | 0.00 | 96 | 1012.7 |
| 20260906044506 | 72 | 309 | 0.0 | 0.0 | 0.00 | 0.95 | 0.00 | 96 | 1012.7 |
| 20260906044004 | 72 | 309 | 0.0 | 0.0 | 0.00 | 0.95 | 0.00 | 96 | 1012.6 |
| 20260906043511 | 72 | 309 | 0.0 | 0.0 | 0.00 | 0.95 | 0.00 | 96 | 1012.5 |
| 20260906043010 | 72 | 309 | 0.0 | 0.0 | 0.00 | 0.95 | 0.00 | 96 | 1012.5 |
| 20260906042505 | 72 | 309 | 0.0 | 0.0 | 0.00 | 0.95 | 0.00 | 96 | 1012.7 |
| 20260906042007 | 72 | 309 | 0.0 | 0.0 | 0.00 | 0.95 | 0.00 | 96 | 1012.7 |
| 20260906041510 | 72 | 309 | 0.0 | 0.0 | 0.00 | 0.95 | 0.00 | 96 | 1012.7 |
| 20260906041008 | 72 | 309 | 0.0 | 0.0 | 0.00 | 0.95 | 0.00 | 95 | 1012.8 |
| 20260906040507 | 72 | 309 | 0.0 | 0.0 | 0.00 | 0.95 | 0.00 | 95 | 1012.7 |
| 20260906040009 | 72 | 309 | 0.0 | 0.0 | 0.00 | 0.95 | 0.00 | 95 | 1012.7 |
| 20260906035508 | 72 | 309 | 0.0 | 0.0 | 0.00 | 0.95 | 0.95 | 95 | 1012.8 |
| 20260906035009 | 72 | 309 | 0.0 | 0.0 | 0.00 | 0.95 | 0.95 | 95 | 1012.7 |
| 20260906034509 | 72 | 309 | 0.0 | 0.0 | 0.00 | 0.95 | 0.95 | 95 | 1012.7 |
| 20260906034007 | 72 | 309 | 0.0 | 0.0 | 0.00 | 0.95 | 0.95 | 95 | 1012.7 |
| 20260906033505 | 72 | 309 | 0.0 | 0.0 | 0.00 | 0.95 | 0.95 | 95 | 1012.7 |
| 20260906033008 | 72 | 309 | 0.0 | 0.0 | 0.00 | 0.95 | 0.95 | 95 | 1012.6 |
| 20260906032507 | 72 | 309 | 0.0 | 0.0 | 0.00 | 0.95 | 0.95 | 95 | 1012.7 |
| 20260906032009 | 72 | 309 | 0.0 | 0.0 | 0.00 | 0.95 | 0.95 | 95 | 1012.7 |
| 20260906031514 | 72 | 309 | 0.0 | 0.0 | 0.00 | 0.95 | 0.95 | 95 | 1012.7 |
| 20260906031007 | 72 | 309 | 0.0 | 0.0 | 0.00 | 0.95 | 0.95 | 95 | 1012.7 |
| 20260906030507 | 72 | 309 | 0.0 | 0.0 | 0.00 | 0.95 | 0.95 | 95 | 1012.7 |
| 20260906030011 | 72 | 308 | 0.0 | 0.0 | 0.00 | 0.95 | 0.95 | 95 | 1012.7 |
| 20260906025508 | 72 | 309 | 0.0 | 0.0 | 0.00 | 0.95 | 0.95 | 95 | 1012.7 |
| 20260906025009 | 72 | 309 | 0.0 | 0.0 | 0.00 | 0.95 | 0.95 | 95 | 1012.6 |
| 20260906024512 | 72 | 308 | 0.0 | 0.0 | 0.00 | 0.95 | 0.95 | 95 | 1012.7 |
| 20260906024012 | 73 | 309 | 0.0 | 0.0 | 0.00 | 0.95 | 0.95 | 95 | 1012.6 |
| 20260906023508 | 73 | 308 | 0.0 | 0.0 | 0.00 | 0.95 | 0.95 | 95 | 1012.5 |
| 20260906023018 | 73 | 308 | 0.0 | 0.0 | 0.00 | 0.95 | 0.95 | 95 | 1012.6 |
| 20260906022510 | 73 | 308 | 0.0 | 0.0 | 0.00 | 0.95 | 0.95 | 95 | 1012.7 |
| 20260906022011 | 73 | 309 | 0.0 | 0.0 | 0.00 | 0.95 | 0.95 | 95 | 1012.6 |
| 20260906021512 | 73 | 309 | 0.0 | 0.0 | 0.00 | 0.95 | 0.95 | 95 | 1012.6 |
| 20260906021009 | 73 | 308 | 0.0 | 0.0 | 0.00 | 0.95 | 0.95 | 95 | 1012.7 |
| 20260906020511 | 73 | 308 | 0.0 | 0.0 | 0.00 | 0.95 | 0.95 | 95 | 1012.7 |
| 20260906020014 | 73 | 308 | 0.0 | 0.0 | 0.00 | 0.95 | 0.95 | 95 | 1012.6 |
| 20260906015515 | 73 | 308 | 0.0 | 0.0 | 0.00 | 0.95 | 0.95 | 95 | 1012.6 |
| 20260906015011 | 74 | 308 | 0.0 | 0.0 | 0.00 | 0.95 | 0.95 | 95 | 1012.7 |
| 20260906014513 | 74 | 308 | 0.0 | 0.0 | 0.00 | 0.95 | 0.95 | 95 | 1012.7 |
| 20260906014012 | 74 | 308 | 0.0 | 0.0 | 0.00 | 0.95 | 0.95 | 95 | 1012.6 |
| 20260906013510 | 74 | 308 | 0.0 | 0.0 | 0.00 | 0.95 | 0.95 | 94 | 1012.4 |
| 20260906013016 | 74 | 308 | 0.0 | 0.0 | 0.00 | 0.95 | 0.95 | 94 | 1012.4 |
| 20260906012510 | 74 | 308 | 0.0 | 0.0 | 0.00 | 0.95 | 0.95 | 94 | 1012.4 |
| 20260906012010 | 74 | 308 | 0.0 | 0.0 | 0.00 | 0.95 | 0.95 | 94 | 1012.3 |
| 20260906011518 | 74 | 308 | 0.0 | 0.0 | 0.00 | 0.95 | 0.95 | 94 | 1012.1 |
| 20260906011015 | 74 | 308 | 0.0 | 0.0 | 0.00 | 0.95 | 0.95 | 94 | 1012.1 |
| 20260906010510 | 74 | 309 | 0.0 | 0.0 | 0.00 | 0.95 | 0.95 | 94 | 1012.1 |
| 20260906010016 | 74 | 309 | 0.0 | 0.0 | 0.00 | 0.95 | 0.95 | 94 | 1011.9 |
| 20260906005511 | 74 | 308 | 0.0 | 0.0 | 0.00 | 0.95 | 0.95 | 94 | 1012.0 |
| 20260906005008 | 74 | 308 | 0.0 | 0.0 | 0.00 | 0.95 | 0.95 | 94 | 1011.9 |
| 20260906004517 | 74 | 308 | 0.0 | 0.0 | 0.00 | 0.95 | 0.95 | 94 | 1011.8 |
| 20260906004003 | 75 | 308 | 0.0 | 0.0 | 0.00 | 0.95 | 0.95 | 94 | 1011.8 |
| 20260906003511 | 75 | 308 | 0.0 | 0.0 | 0.00 | 0.95 | 0.95 | 94 | 1011.7 |
| 20260906003024 | 75 | 308 | 0.0 | 0.0 | 0.00 | 0.95 | 0.95 | 94 | 1011.7 |
| 20260906002506 | 75 | 308 | 0.0 | 0.0 | 0.00 | 0.95 | 0.95 | 93 | 1011.8 |
| 20260906002010 | 75 | 308 | 0.0 | 0.0 | 0.00 | 0.95 | 0.95 | 93 | 1011.6 |
| 20260906001516 | 75 | 308 | 0.0 | 0.0 | 0.00 | 0.95 | 0.95 | 93 | 1011.6 |
| 20260906001003 | 75 | 308 | 0.0 | 0.0 | 0.00 | 0.95 | 0.95 | 93 | 1011.5 |
| 20260906000512 | 75 | 308 | 0.0 | 0.0 | 0.00 | 0.95 | 0.95 | 93 | 1011.3 |
| 20260906000004 | 75 | 308 | 0.0 | 0.0 | 0.00 | 0.95 | 0.95 | 93 | 1011.2 |
| 20260905235507 | 76 | 308 | 0.0 | 0.0 | 0.00 | 0.95 | 0.95 | 92 | 1011.2 |
| 20260905235014 | 76 | 308 | 0.0 | 0.0 | 0.00 | 0.95 | 0.95 | 92 | 1011.2 |
| 20260905234508 | 76 | 308 | 0.0 | 0.0 | 0.00 | 0.95 | 0.95 | 92 | 1011.3 |
| 20260905234008 | 76 | 308 | 0.0 | 0.0 | 0.00 | 0.95 | 0.95 | 92 | 1011.3 |
| 20260905233511 | 76 | 308 | 0.0 | 0.0 | 0.00 | 0.95 | 0.95 | 92 | 1011.1 |
| 20260905233006 | 76 | 308 | 0.0 | 0.0 | 0.00 | 0.95 | 0.95 | 92 | 1011.0 |
| 20260905232512 | 76 | 308 | 0.0 | 0.0 | 0.00 | 0.96 | 0.95 | 91 | 1010.8 |
| 20260905232014 | 76 | 308 | 0.0 | 0.0 | 0.00 | 0.96 | 0.95 | 91 | 1010.8 |
| 20260905231506 | 76 | 308 | 0.0 | 0.0 | 0.00 | 0.96 | 0.95 | 90 | 1011.0 |
| 20260905231007 | 76 | 308 | 0.0 | 0.0 | 0.00 | 0.96 | 0.95 | 89 | 1011.2 |
| 20260905230511 | 76 | 308 | 0.0 | 0.0 | 0.00 | 0.96 | 0.95 | 89 | 1011.3 |
| 20260905230004 | 76 | 308 | 0.0 | 0.0 | 0.00 | 0.97 | 0.95 | 89 | 1011.2 |
| 20260905225508 | 77 | 308 | 0.0 | 0.0 | 0.00 | 1.05 | 0.95 | 89 | 1011.2 |
| 20260905225013 | 77 | 308 | 0.0 | 0.0 | 0.00 | 1.05 | 0.95 | 89 | 1011.2 |
| 20260905224504 | 77 | 308 | 0.0 | 1.7 | 0.00 | 1.05 | 0.95 | 88 | 1011.2 |
| 20260905224009 | 77 | 308 | 0.0 | 2.6 | 0.00 | 1.05 | 0.95 | 87 | 1011.3 |
| 20260905223515 | 77 | 338 | 0.0 | 2.6 | 0.00 | 1.05 | 0.95 | 87 | 1011.2 |
| 20260905223015 | 77 | 334 | 0.0 | 2.6 | 0.00 | 1.05 | 0.95 | 87 | 1011.2 |
| 20260905222509 | 77 | 348 | 0.0 | 2.6 | 0.00 | 1.05 | 0.95 | 87 | 1011.2 |
| 20260905222022 | 77 | 325 | 0.0 | 0.9 | 0.00 | 1.05 | 0.95 | 87 | 1011.2 |
| 20260905221510 | 77 | 350 | 0.0 | 0.0 | 0.00 | 1.05 | 0.95 | 86 | 1011.1 |
| 20260905221012 | 77 | 350 | 0.0 | 0.0 | 0.00 | 1.05 | 0.95 | 86 | 1011.1 |
| 20260905220515 | 77 | 350 | 0.0 | 0.0 | 0.00 | 1.05 | 0.95 | 87 | 1011.2 |
| 20260905220007 | 77 | 350 | 0.0 | 0.0 | 0.00 | 1.05 | 0.95 | 87 | 1011.1 |
| 20260905215513 | 77 | 350 | 0.0 | 0.0 | 0.00 | 1.12 | 0.95 | 86 | 1011.2 |
| 20260905215015 | 77 | 350 | 0.0 | 0.0 | 0.00 | 1.15 | 0.95 | 88 | 1011.1 |
| 20260905214507 | 77 | 350 | 0.0 | 0.0 | 0.00 | 1.15 | 0.95 | 88 | 1011.3 |
| 20260905214012 | 76 | 350 | 0.0 | 0.0 | 0.00 | 1.15 | 0.95 | 88 | 1011.3 |
| 20260905213516 | 76 | 350 | 0.0 | 0.0 | 0.00 | 1.15 | 0.95 | 88 | 1011.3 |
| 20260905213008 | 76 | 350 | 0.0 | 0.0 | 0.00 | 1.15 | 0.95 | 88 | 1011.3 |
| 20260905212510 | 76 | 350 | 0.0 | 0.0 | 0.00 | 1.15 | 0.95 | 87 | 1011.3 |
| 20260905212021 | 76 | 309 | 0.0 | 0.0 | 0.00 | 1.15 | 0.95 | 87 | 1011.2 |
| 20260905211522 | 76 | 309 | 0.0 | 0.0 | 0.00 | 1.15 | 0.95 | 88 | 1011.2 |
| 20260905211012 | 77 | 275 | 0.0 | 0.0 | 0.00 | 1.15 | 0.95 | 88 | 1011.2 |
| 20260905210518 | 77 | 275 | 0.0 | 0.0 | 0.00 | 1.15 | 0.95 | 89 | 1011.3 |
| 20260905210011 | 76 | 275 | 0.0 | 0.9 | 0.00 | 1.15 | 0.95 | 88 | 1011.3 |
| 20260905205513 | 76 | 162 | 0.0 | 0.9 | 0.00 | 1.15 | 0.95 | 88 | 1011.4 |
| 20260905205016 | 76 | 175 | 0.0 | 0.9 | 0.00 | 1.15 | 0.95 | 88 | 1011.4 |
| 20260905204511 | 76 | 42 | 0.0 | 0.9 | 0.00 | 1.15 | 0.95 | 88 | 1011.4 |
| 20260905204015 | 76 | 42 | 0.0 | 0.9 | 0.00 | 1.15 | 0.95 | 90 | 1011.3 |
| 20260905203516 | 76 | 123 | 0.0 | 1.7 | 0.00 | 1.15 | 0.95 | 91 | 1011.4 |
| 20260905203012 | 76 | 123 | 0.0 | 1.7 | 0.00 | 1.15 | 0.95 | 92 | 1011.4 |
| 20260905202513 | 76 | 159 | 0.0 | 1.7 | 0.00 | 1.15 | 0.95 | 93 | 1011.4 |
| 20260905202014 | 76 | 198 | 0.0 | 2.6 | 0.00 | 1.15 | 0.95 | 94 | 1011.4 |
| 20260905201517 | 75 | 167 | 0.0 | 2.6 | 0.01 | 1.15 | 0.95 | 94 | 1011.3 |
| 20260905201015 | 75 | 83 | 0.0 | 1.7 | 0.01 | 1.15 | 0.95 | 94 | 1011.5 |
| 20260905200516 | 75 | 59 | 0.0 | 1.7 | 0.01 | 1.15 | 0.95 | 94 | 1011.4 |
| 20260905200015 | 75 | 142 | 0.0 | 1.7 | 0.03 | 1.15 | 0.95 | 94 | 1011.4 |
| 20260905195515 | 75 | 209 | 0.0 | 3.5 | 0.05 | 1.15 | 0.95 | 94 | 1011.3 |
| 20260905195018 | 75 | 17 | 0.0 | 3.5 | 0.05 | 1.15 | 0.95 | 95 | 1011.5 |
| 20260905194516 | 75 | 299 | 0.9 | 3.5 | 0.05 | 1.15 | 0.95 | 95 | 1011.5 |
| 20260905194016 | 74 | 323 | 0.9 | 2.6 | 0.05 | 1.15 | 0.95 | 94 | 1011.6 |
| 20260905193515 | 75 | 309 | 0.0 | 0.0 | 0.06 | 1.15 | 0.95 | 95 | 1011.6 |
| 20260905193018 | 74 | 309 | 0.0 | 0.0 | 0.08 | 1.15 | 0.95 | 95 | 1011.6 |
| 20260905192514 | 74 | 306 | 0.0 | 0.0 | 0.08 | 1.15 | 0.95 | 95 | 1011.6 |
| 20260905192018 | 74 | 339 | 0.0 | 0.0 | 0.08 | 1.15 | 0.95 | 94 | 1011.6 |
| 20260905191519 | 74 | 76 | 0.0 | 0.0 | 0.07 | 1.14 | 0.94 | 94 | 1011.5 |
| 20260905191018 | 74 | 148 | 0.0 | 0.0 | 0.07 | 1.14 | 0.94 | 94 | 1011.6 |
| 20260905190514 | 74 | 148 | 0.0 | 0.0 | 0.07 | 1.14 | 0.94 | 94 | 1012.1 |
| 20260905190034 | 74 | 271 | 0.0 | 0.0 | 0.05 | 1.12 | 0.92 | 94 | 1012.2 |
| 20260905185513 | 74 | 271 | 0.0 | 0.0 | 0.03 | 1.10 | 0.90 | 94 | 1012.4 |
| 20260905185006 | 74 | 271 | 0.0 | 0.0 | 0.03 | 1.10 | 0.90 | 94 | 1012.4 |
| 20260905184503 | 74 | 323 | 0.0 | 0.0 | 0.03 | 1.10 | 0.90 | 94 | 1012.8 |
| 20260905184003 | 74 | 323 | 0.0 | 0.0 | 0.03 | 1.10 | 0.90 | 93 | 1012.4 |
| 20260905183508 | 74 | 331 | 0.0 | 0.0 | 0.02 | 1.09 | 0.89 | 93 | 1012.1 |
| 20260905183002 | 74 | 30 | 0.0 | 0.9 | 0.00 | 1.07 | 0.87 | 92 | 1012.0 |
| 20260905182502 | 74 | 207 | 0.0 | 0.9 | 0.00 | 1.07 | 0.87 | 92 | 1012.1 |
| 20260905182009 | 75 | 161 | 0.0 | 2.6 | 0.00 | 1.07 | 0.87 | 93 | 1012.0 |
| 20260905181503 | 74 | 207 | 0.0 | 2.6 | 0.00 | 1.07 | 0.87 | 93 | 1012.0 |
| 20260905181003 | 74 | 143 | 0.0 | 2.6 | 0.00 | 1.07 | 0.87 | 93 | 1012.1 |
| 20260905180505 | 74 | 144 | 0.0 | 2.6 | 0.00 | 1.07 | 0.87 | 92 | 1012.1 |
| 20260905180004 | 74 | 18 | 0.0 | 1.7 | 0.00 | 1.07 | 0.87 | 93 | 1012.4 |
| 20260905175503 | 75 | 102 | 0.0 | 1.7 | 0.01 | 1.07 | 0.87 | 93 | 1012.3 |
| 20260905175011 | 75 | 120 | 0.0 | 3.5 | 0.03 | 1.07 | 0.87 | 93 | 1012.4 |
| 20260905174502 | 75 | 175 | 0.0 | 3.5 | 0.05 | 1.07 | 0.87 | 94 | 1012.5 |
| 20260905174004 | 74 | 201 | 0.0 | 3.5 | 0.07 | 1.07 | 0.87 | 94 | 1012.7 |
| 20260905173508 | 74 | 144 | 0.0 | 3.5 | 0.09 | 1.07 | 0.87 | 95 | 1012.7 |
| 20260905173007 | 73 | 178 | 0.0 | 3.5 | 0.10 | 1.07 | 0.87 | 94 | 1012.9 |
| 20260905172503 | 74 | 174 | 0.0 | 2.6 | 0.23 | 1.07 | 0.87 | 95 | 1012.8 |
| 20260905172011 | 73 | 148 | 0.9 | 2.6 | 0.47 | 1.07 | 0.87 | 94 | 1012.5 |
| 20260905171511 | 73 | 64 | 0.0 | 3.5 | 0.52 | 1.07 | 0.87 | 94 | 1012.5 |
| 20260905171013 | 73 | 31 | 0.0 | 3.5 | 0.71 | 1.07 | 0.87 | 94 | 1012.6 |
| 20260905170510 | 74 | 21 | 0.9 | 3.5 | 0.87 | 1.07 | 0.87 | 95 | 1012.5 |
| 20260905170031 | 74 | 332 | 0.0 | 1.7 | 0.87 | 1.07 | 0.87 | 94 | 1012.9 |
| 20260905165506 | 74 | 348 | 0.0 | 1.7 | 0.86 | 1.05 | 0.86 | 94 | 1013.4 |
| 20260905165010 | 74 | 347 | 0.0 | 1.7 | 0.84 | 1.04 | 0.84 | 94 | 1013.8 |
| 20260905164503 | 74 | 347 | 0.0 | 1.7 | 0.82 | 1.02 | 0.82 | 93 | 1014.0 |
| 20260905164005 | 74 | 350 | 0.0 | 0.9 | 0.80 | 1.00 | 0.80 | 93 | 1014.3 |
| 20260905163511 | 74 | 335 | 0.0 | 0.9 | 0.78 | 0.98 | 0.78 | 93 | 1014.1 |
| 20260905163004 | 74 | 335 | 0.0 | 4.3 | 0.77 | 0.97 | 0.77 | 92 | 1014.0 |
| 20260905162508 | 75 | 333 | 0.0 | 4.3 | 0.64 | 0.84 | 0.64 | 92 | 1014.2 |
| 20260905162015 | 76 | 343 | 0.9 | 3.5 | 0.40 | 0.60 | 0.40 | 91 | 1014.2 |
| 20260905161505 | 77 | 341 | 0.0 | 2.6 | 0.35 | 0.55 | 0.35 | 89 | 1014.3 |
| 20260905161007 | 79 | 331 | 0.9 | 3.5 | 0.16 | 0.36 | 0.16 | 86 | 1014.0 |
| 20260905160512 | 80 | 350 | 0.0 | 3.5 | 0.00 | 0.20 | 0.00 | 82 | 1014.1 |
| 20260905160004 | 80 | 331 | 0.0 | 3.5 | 0.00 | 0.20 | 0.00 | 80 | 1013.6 |
| 20260905155506 | 81 | 328 | 0.0 | 3.5 | 0.00 | 0.20 | 0.00 | 76 | 1013.2 |
| 20260905155011 | 81 | 296 | 0.9 | 3.5 | 0.00 | 0.20 | 0.00 | 75 | 1012.9 |
| 20260905154504 | 82 | 279 | 0.9 | 3.5 | 0.00 | 0.20 | 0.00 | 76 | 1012.8 |
| 20260905154010 | 82 | 21 | 0.0 | 4.3 | 0.00 | 0.20 | 0.00 | 75 | 1012.4 |
| 20260905153513 | 82 | 55 | 0.0 | 4.3 | 0.00 | 0.20 | 0.00 | 77 | 1012.5 |
| 20260905153005 | 82 | 360 | 0.0 | 5.2 | 0.00 | 0.20 | 0.00 | 78 | 1012.6 |
| 20260905152508 | 82 | 30 | 0.0 | 5.2 | 0.00 | 0.20 | 0.00 | 76 | 1012.7 |
| 20260905152015 | 82 | 24 | 0.9 | 4.3 | 0.00 | 0.20 | 0.00 | 76 | 1012.8 |
| 20260905151505 | 82 | 355 | 0.9 | 4.3 | 0.00 | 0.20 | 0.00 | 76 | 1012.8 |
| 20260905151010 | 83 | 321 | 0.0 | 4.3 | 0.00 | 0.20 | 0.00 | 77 | 1012.8 |
| 20260905150513 | 82 | 5 | 0.0 | 4.3 | 0.00 | 0.20 | 0.00 | 76 | 1012.8 |
| 20260905150006 | 83 | 49 | 0.9 | 4.3 | 0.00 | 0.20 | 0.00 | 73 | 1012.8 |
| 20260905145511 | 83 | 329 | 0.0 | 4.3 | 0.00 | 0.20 | 0.00 | 75 | 1012.9 |
| 20260905145019 | 83 | 355 | 0.9 | 4.3 | 0.00 | 0.20 | 0.00 | 74 | 1012.8 |
| 20260905144508 | 82 | 277 | 0.0 | 1.7 | 0.00 | 0.20 | 0.00 | 76 | 1012.7 |
| 20260905144009 | 82 | 306 | 0.0 | 1.7 | 0.00 | 0.20 | 0.00 | 75 | 1012.8 |
| 20260905143515 | 82 | 67 | 0.0 | 0.9 | 0.00 | 0.20 | 0.00 | 77 | 1012.7 |
| 20260905143009 | 82 | 52 | 0.0 | 3.5 | 0.00 | 0.20 | 0.00 | 77 | 1012.7 |
| 20260905142512 | 81 | 30 | 0.0 | 3.5 | 0.00 | 0.20 | 0.00 | 79 | 1012.8 |
| 20260905142019 | 81 | 272 | 0.0 | 0.0 | 0.00 | 0.20 | 0.00 | 80 | 1012.7 |
| 20260905141510 | 80 | 66 | 0.0 | 0.0 | 0.00 | 0.20 | 0.00 | 83 | 1012.7 |
| 20260905141010 | 80 | 52 | 0.0 | 0.0 | 0.00 | 0.20 | 0.00 | 83 | 1012.6 |
| 20260905140517 | 79 | 333 | 0.0 | 0.0 | 0.00 | 0.20 | 0.00 | 85 | 1012.4 |
| 20260905140011 | 78 | 24 | 0.0 | 0.9 | 0.00 | 0.20 | 0.00 | 87 | 1012.3 |
| 20260905135512 | 78 | 88 | 0.0 | 0.9 | 0.00 | 0.20 | 0.00 | 87 | 1012.4 |